Regional Weather Roundup
Issued by NWS

Home | Current Version | Previous Version | Text Only | Print | Product List | Glossary On
Versions: 1 2 3 4 5 6 7 8 9 10 11 12 13 14 15 16 17 18 19 20 21 22 23 24 25 26 27 28 29 30 31 32 33 34 35 36 37 38 39 40 41 42 43 44 45 46 47 48 49 50
050
ASUS43 KMKX 241711
RWRWI

WISCONSIN REGIONAL WEATHER ROUNDUP
NATIONAL WEATHER SERVICE MILWAUKEE/SULLIVAN WI
1200 PM CDT SUN JUL 24 2016

NOTE: "FAIR" INDICATES FEW OR NO CLOUDS BELOW 12,000 FEET WITH NO
SIGNIFICANT WEATHER AND/OR OBSTRUCTIONS TO VISIBILITY.

WIZ001-002-006>008-014>016-023>028-241800-
NORTHWEST WISCONSIN

CITY           SKY/WX    TMP DP  RH WIND       PRES   REMARKS
SUPERIOR ARPT  MOSUNNY   77  64  62 W14G22    29.79R
ASHLAND        MOSUNNY   81  66  60 W12       29.78S HX  83
HAYWARD        MOSUNNY   78  65  63 W8        29.83R HX  80
SIREN          MOSUNNY   81  63  54 W14G21    29.85R HX  82
CUMBERLAND     MOSUNNY   79  63  57 W12       29.86R HX  80
RICE LAKE      MOSUNNY   79  65  61 W13G18    29.86R HX  81
CHETEK         SUNNY     81  68  64 MISG      29.85R HX  84
LADYSMITH      MOSUNNY   80  68  66 W13       29.85S HX  83
EAU CLAIRE     MOSUNNY   83  68  60 W12       29.84R HX  86
MENOMONIE      SUNNY     79  77  95 W14       29.85R HX  83
NEW RICHMOND   MOSUNNY   81  63  53 W13       29.87S HX  82
OSCEOLA        MOSUNNY   81  65  59 W13       29.90R HX  82
$$

WIZ003>005-009-010-017-018-241800-
NORTH CENTRAL WISCONSIN

CITY           SKY/WX    TMP DP  RH WIND       PRES   REMARKS
MANITOWISH WTR PTSUNNY   76  70  82 W9G16     29.82R
ARBOR VITAE    CLOUDY    77  71  80 W9        29.83R
WOODRUFF       CLOUDY    77  71  80 W9        29.83R
RHINELANDER    CLOUDY    76  69  79 W8        29.84R
EAGLE RIVER    CLOUDY    76  67  73 SW12      29.82S
LAND O LAKES   PTSUNNY   78  68  70 W7        29.82S HX  81
PHILLIPS       CLOUDY    76  70  82 W5        29.83R
TOMAHAWK       CLOUDY    75  70  86 CALM      29.84R
MEDFORD        CLOUDY    76  74  94 W9        29.84R
MERRILL        CLOUDY    74  74 100 W3        29.83S
$$

WIZ029-030-035-036-043>047-241800-
CENTRAL WISCONSIN

CITY           SKY/WX    TMP DP  RH WIND       PRES   REMARKS
WAUSAU         CLOUDY    76  73  91 W5        29.81R
MOSINEE        CLOUDY    75  75 100 W7        29.84R
MARSHFIELD     CLOUDY    78  71  79 W10       29.83R HX  80
STEVENS POINT  CLOUDY    75  74  95 W8        29.83R FOG
WAUPACA        CLOUDY    83  80  89 SW8       29.81S HX  95
WAUTOMA        CLOUDY    84  78  82 SW7       29.82S HX  95
WISC RAPIDS    CLOUDY    81  74  79 W9        29.84R HX  86
CAMP DOUGLAS   PTSUNNY   84  77  79 W8        29.82S HX  94
$$

WIZ011>013-019>022-031-037>040-048>050-241800-
NORTHEAST WISCONSIN

CITY           SKY/WX    TMP DP  RH WIND       PRES   REMARKS
ANTIGO         CLOUDY    73  73  99 CALM      29.83S FOG
SHAWANO        CLOUDY    79  74  85 S3        29.80F HX  82
OCONTO         CLOUDY    78  78 100 SW9       29.79S HX  82
STURGEON BAY   CLOUDY    80  73  79 S13       29.80F HX  84
GREEN BAY      CLOUDY    76  76 100 S12       29.80F
MANITOWOC      CLOUDY    72  69  90 MISG      29.84S
APPLETON       CLOUDY    75  75 100 S6        29.81S
CLINTONVILLE   CLOUDY    79  73  83 SW8       29.81S HX  82
OSHKOSH        CLOUDY    81  76  84 SW8       29.82S HX  87
$$

WIZ032>034-041-042-053>061-241800-
SOUTHWEST WISCONSIN

CITY           SKY/WX    TMP DP  RH WIND       PRES   REMARKS
LA CROSSE      MOSUNNY   88  74  63 NW12      29.83R HX  96
SPARTA         PTSUNNY   83  76  77 W7        29.84R HX  91
VIROQUA        MOSUNNY   84  75  74 W7        29.87S HX  92
BOSCOBEL       CLOUDY    85  78  80 VRB5      29.84R HX  96
PRAIRIE DU CHI CLOUDY    84  75  75 W5        29.84S HX  92
PLATTEVILLE    CLOUDY    85  81  89 W8        29.87S HX 101
$$

WIZ056-057-062-063-064-067-068-241800-
SOUTH CENTRAL WISCONSIN

CITY           SKY/WX    TMP DP  RH WIND       PRES   REMARKS
REEDSBURG      CLOUDY   N/A N/A N/A SW10      29.84R
BARABOO/DELLS  CLOUDY    84  78  81 W9        29.84S HX  95
LONE ROCK      CLOUDY    84  78  82 W12       29.84R HX  95
MINERAL POINT  CLOUDY    86  79  79 W9        29.87S HX  99
MADISON        PTSUNNY   86  77  74 SW7       29.84R HX  97
MIDDLETON      CLOUDY    87  78  75 SW8       29.85S HX  99
WATERTOWN      CLOUDY    86  80  82 SW8G16    29.84S HX 100
MONROE         PTSUNNY   88  77  70 SW14      29.87R HX 100
JANESVILLE     PTSUNNY   90  77  66 SW14      29.85R HX 102
$$

WIZ051-052-058>065-066-070>072-241800-
SOUTHEAST WISCONSIN

CITY           SKY/WX    TMP DP  RH WIND       PRES   REMARKS
MILWAUKEE      CLOUDY    88  77  69 S12       29.84F HX 100
WAUKESHA       MOSUNNY   82  75  78 SW10G17   29.86F HX  89
MILWAUKEE/TIMM MOSUNNY   86  73  66 SW7       29.85F HX  93
RACINE         MOSUNNY   84  73  69 S8        29.87S HX  90
BURLINGTON     SUNNY     91  83  77 SW12G17   29.86S HX 116
KENOSHA        MOSUNNY   89  77  67 SW14G23   29.86F HX 101
FOND DU LAC    CLOUDY    82  77  84 SW10      29.83S HX  90
SHEBOYGAN      CLOUDY    74  71  91 S10G17    29.84S FOG
WEST BEND      CLOUDY    86  73  66 SW12      29.84S HX  93
JUNEAU         CLOUDY    83  78  86 S9        29.85F HX  92
$$

LSZ147-162-241800-
LAKE SUPERIOR

STATION/POSITION TIME  TEMP    WIND        PRES    WAVE
                       AIR SEA DIR/SP/G            HT/PER
                 (UTC) (F)     (DEG/KT/KT) (MB)    (FT/S)
W MID LAKE BUOY  1650   61 58  250/ 10/ 12 1006.6R   1/ 2
DEVILS ISLAND    1600   67     230/  8/ 11 1007.3R
PORT WING        1600   73     260/  9/ 11 1008.1F
SAXON HARBOR     1600   78     270/  5/ 13 1007.8
$$

LMZ867-665-643>646-241800-
LAKE MICHIGAN

STATION/POSITION TIME  TEMP    WIND        PRES    WAVE
                       AIR SEA DIR/SP/G            HT/PER
                 (UTC) (F)     (DEG/KT/KT) (MB)    (FT/S)
CHAMBERS ISLAND  1600   74     160/  7/ 12 1008.8S
S GREEN BAY BUOY 1630   75 74  200/ 10/ 14   N/A
N MID LAKE BUOY  1650   70 69  200/ 17/ 21 1008.3F   4/ 5
NORTHPORT PIER   1600   72     160/  8/ 14 1009.1R
KEWAUNEE LAKESHO 1600   72     200/ 13/ 18 1009.2F
SHEBOYGAN LAKESH 1700   65     180/ 13/ 14 1010.9S
PORT WASHINGTON  1640   67     190/  5/ 10 1011.5S
MILWAUKEE LAKESH 1610   62     140/ 12/ 14   N/A
S MID LAKE BUOY  1650   75 72  150/ 17/ 21 1011.3F   3/ 5
KENOSHA   LAKESH 1700          170/ 13/ 18 1010.8F
$$

TC  - TEMPERATURE IN CELSIUS
VSB - VISIBILITY IN STATUTE MILES
WCI - WIND CHILL INDEX
HX  - HEAT INDEX





USA.gov is the U.S. government's official web portal to all federal, state and local government web resources and services.